Weather in Payturma

Russia / Krasnoyarsk Krai     71°37′10″N   95°26′03″E
temp.,
°C
wind,
m/s
gust,
m/s
humid.,
%
clouds,
%
prec.,
mm/h
press.,
hPa
HPBL,
m
4 march, thu
thu401:00−39e44972 0.0 102554
04:00−39e47979 0.0 102483
07:00−39e479711 0.0 1024102
10:00−38e59959 0.0 1022140
13:00−35e59934 0.0 1021195
16:00−35ene59930 0.0 1020179
19:00−36e610930 0.0 1019150
22:00−35e610900 0.0 1018150
5 march, fri
fri501:00−36ene510880 0.0 1017144
04:00−36ene510880 0.0 1017132
07:00−37ene47880 0.0 1017107
10:00−36ene47880 0.0 1017124
13:00−34ene47880 0.0 1016179
16:00−35ene48900 0.0 1016147
19:00−36ene47930 0.0 101698
22:00−36ene58912 0.0 1015111
6 march, sat
sat601:00−36ene58911 0.0 1014123
04:00−36ene589216 0.0 1013121
07:00−36ene589431 0.0 1012115
10:00−34ene599449 0.0 1011155
13:00−31ene599347 0.0 1010200
16:00−31ene489563 0.0 1009138
19:00−32ene459556 0.0 100859
22:00−33ene459368 0.0 100765
7 march, sun
sun701:00−34ene459359 0.0 100755
04:00−34ene449472 0.0 100641
07:00−34ene349565 0.0 100729
10:00−33ene339561 0.0 100636
13:00−31ne239460 0.0 100656
16:00−32ne239416 0.0 100721
19:00−34ne229622 0.0 100719
22:00−34ne229662 0.0 100719
8 march, mon
mon801:00−32ne229675 0.0 100719
04:00−31ne229796 0.0 100721
07:00−31ne229897 0.1 100725
10:00−30ne229898 0.1 100654
13:00−28nne229696 0.1 1006125
16:00−30nne239794 0.1 100730
19:00−32nne229889 0.1 100819
22:00−31ne129894 0.1 100819